Location: Newberry Star Park
(29.6730°N, 82.6011°W)
Time: 15:55:29
(UTC-05:00)

Envisat - Visible Passes

Search period start: 20 January 2018 00:00
Search period end: 30 January 2018 00:00
Orbit: 764 x 766 km, 98.2° (Epoch: 20 January)

Date Brightness Start Highest point End Pass type
(mag) Time Alt. Az. Time Alt. Az. Time Alt. Az.
26 Jan 5.2 20:04:34 13° N 20:04:34 13° N 20:05:08 10° N visible
27 Jan 5.0 19:27:08 12° NNE 19:27:08 12° NNE 19:27:41 10° NNE visible
28 Jan 5.2 20:29:51 15° NNW 20:29:51 15° NNW 20:30:46 10° NNW visible
29 Jan 4.7 19:52:23 19° N 19:52:23 19° N 19:53:53 10° N visible
